Regional Weather Roundup
Issued by NWS Cleveland, OH

Home | Current Version | Previous Version | Text Only | Print | Product List | Glossary On
Versions: 1 2 3 4 5 6 7 8 9 10 11 12 13 14 15 16 17 18 19 20 21 22 23 24 25 26 27 28 29 30 31 32 33 34 35 36 37 38 39 40 41 42 43 44 45 46 47 48 49 50
000
ASUS41 KCLE 241510
RWRCLE
OHIO REGIONAL WEATHER ROUNDUP
NATIONAL WEATHER SERVICE CLEVELAND, OH
1100 AM EDT FRI OCT 24 2014

NOTE: "FAIR" INDICATES FEW OR NO CLOUDS BELOW 12,000 FEET WITH NO
SIGNIFICANT WEATHER AND/OR OBSTRUCTIONS TO VISIBILITY.

OHZ001>008-015>018-024>027-034-035-043-044-241600-
   NORTHWEST OHIO

CITY           SKY/WX    TMP DP  RH WIND       PRES   REMARKS
DEFIANCE       CLOUDY    51  42  71 SW3       30.11R
FINDLAY        SUNNY     55  43  63 SW6       30.09F
TOLEDO EXPRESS SUNNY     52  41  66 SW3       30.09S
TOLEDO EXEC    SUNNY     52  42  69 SW7       30.11S
LIMA           SUNNY     55  42  61 SW6       30.10F HAZE
$$

OHZ009>014-019>023-028>033-038-089-241600-
   NORTHEAST OHIO

CITY           SKY/WX    TMP DP  RH WIND       PRES   REMARKS
CLE-HOPKINS    MOSUNNY   52  43  71 SW7       30.12S
CLE-LAKEFRONT  MOSUNNY   53  42  66 SW8       30.09S
CUY CO. ARPT   PTSUNNY   55  43  62 NW10      30.09F
LORAIN-ELYRIA  SUNNY     52  42  69 W9        30.11S
ASHTABULA      MOSUNNY   54  46  74 W8        30.08F
AKRON-CANTON   PTSUNNY   53  42  66 W6        30.10S
WOOSTER        SUNNY     54  42  64 W7        30.11S
MANSFIELD      SUNNY     54  43  66 W7        30.11S
YOUNGSTOWN     PTSUNNY   50  44  80 W5        30.09S
$$

OHZ042-051>053-060>062-070>072-077>081-241600-
  SOUTHWEST OHIO

CITY           SKY/WX    TMP DP  RH WIND       PRES   REMARKS
CINC-COVINGTON MOSUNNY   57  43  59 SW5       30.13S
CINC-LUNKEN    SUNNY     52  47  83 CALM      30.15S
HAMILTON       SUNNY     53  46  77 CALM      30.14F
DAYTON         MOSUNNY   56  42  59 SW6       30.12S
WRIGHT-PAT AFB SUNNY     52  44  75 S5        30.12F
DAYTON GENERAL SUNNY     53  43  68 CALM      30.12S
WILMINGTON     SUNNY     56  43  61 SW3       30.12S
$$

OHZ036-037-039>041-045>050-054>059-063>069-073>076-082>088-241600-
  CENTRAL AND SOUTHEAST OHIO

CITY           SKY/WX    TMP DP  RH WIND       PRES   REMARKS
COLUMBUS       MOSUNNY   51  42  71 SW3       30.12S
OSU AIRPORT    SUNNY     52  43  71 CALM      30.11F HAZE
BOLTON FIELD   SUNNY     54  45  71 S3        30.12F
RICKENBACK AFB MOSUNNY   49  43  79 SW3       30.12F
NEWARK         SUNNY     52  44  74 S3        30.11F
MARION         SUNNY     53  42  66 CALM      30.11F HAZE
LANCASTER      MOSUNNY   54  46  74 SW3       30.12F
ZANESVILLE     SUNNY     49  43  80 VRB3      30.12F
NEW PHILLY     PTSUNNY   45  43  93 SE5       30.12F FOG
$$



USA.gov is the U.S. government's official web portal to all federal, state and local government web resources and services.